Back to catalog

SL-14 R/B

AlivePO
NORAD 23447·ROCKET BODY·🇷🇺 Russia

Launched Dec 26, 1994 from Plesetsk Cosmodrome

Loading…

Next Passes (next 24 hours)

TLE

FreshSource: Space-Track

Epoch: Sep 14, 2026, 04:56 UTC

1 23447U 94086G   26257.20617713  .00000039  00000-0  17623-3 0  9990
2 23447  82.5738 349.6434 0036701 250.4494 134.5535 12.55516938453433

Track SL-14 R/B in real time with AllMySat

Download on the App Store